STARLINK-34464

Last updated on Sat Jul 19 2025 00:02:07 GMT+0000 (Coordinated Universal Time)

1 64664U 25139A 25199.58335648 -.01622537 00000+0 -35895-1 0 9992 2 64664 53.1596 138.2025 0001223 74.3698 97.8189 15.46467304 4380
UTC large
Height (km)
Speed (km/s)
/
Latitude / Longitude
Inclination (degrees)
Orbital Period (minutes)
Azimuth
Elevation
Range (km)
Doppler Factor

Next 0 passes for location: London (51.5072 / 0.1276)

Sorry there are no passes over London.